CSC3261 ZLXY-ZUZH

Flight info

Callsign CSC3261
Flight time N/A
Altitude FL271
Route NSH9X NSH G212 TUVKI
Aircraft T154/M-S/N

Departure

Time 2026-05-07 05:58
Airport Xi'an Xianyang International Airport (ZLXY)

Arrival

Time N/A
Airport Panzhihua Bao'anying Airport (ZUZH)
Time Latitude Longitude Altitude Speed Heading
2026-05-07 05:33 34.44674 108.75808 1604 ft 0 kts 319°
2026-05-07 05:48 34.44676 108.75806 1604 ft 1 kts 319°
2026-05-07 05:48 34.44677 108.75805 1604 ft 0 kts 319°
2026-05-07 05:48 34.44677 108.75804 1604 ft 0 kts 319°
2026-05-07 05:48 34.44679 108.75803 1604 ft 1 kts 319°
2026-05-07 05:49 34.44695 108.75787 1604 ft 4 kts 322°
2026-05-07 05:49 34.44720 108.75773 1604 ft 4 kts 358°
2026-05-07 05:49 34.44749 108.75776 1604 ft 5 kts
2026-05-07 05:49 34.44785 108.75766 1604 ft 6 kts 333°
2026-05-07 05:50 34.44827 108.75730 1604 ft 9 kts 321°
2026-05-07 05:50 34.44874 108.75683 1604 ft 9 kts 320°
2026-05-07 05:50 34.44917 108.75639 1604 ft 8 kts 318°
2026-05-07 05:50 34.44956 108.75596 1604 ft 7 kts 318°
2026-05-07 05:51 34.45007 108.75543 1604 ft 14 kts 319°
2026-05-07 05:51 34.45103 108.75442 1604 ft 20 kts 319°
2026-05-07 05:51 34.45207 108.75332 1604 ft 17 kts 318°
2026-05-07 05:51 34.45231 108.75281 1604 ft 3 kts 261°
2026-05-07 05:52 34.45221 108.75258 1604 ft 4 kts 231°
2026-05-07 05:52 34.45197 108.75225 1604 ft 5 kts 228°
2026-05-07 05:52 34.45164 108.75181 1604 ft 11 kts 228°
2026-05-07 05:52 34.45104 108.75098 1604 ft 14 kts 229°
2026-05-07 05:53 34.45033 108.75001 1604 ft 17 kts 229°
2026-05-07 05:53 34.44952 108.74888 1604 ft 19 kts 229°
2026-05-07 05:53 34.44861 108.74762 1604 ft 21 kts 229°
2026-05-07 05:53 34.44759 108.74622 1604 ft 23 kts 229°
2026-05-07 05:54 34.44648 108.74467 1604 ft 25 kts 229°
2026-05-07 05:54 34.44527 108.74300 1604 ft 27 kts 229°
2026-05-07 05:54 34.44396 108.74119 1604 ft 29 kts 228°
2026-05-07 05:54 34.44258 108.73932 1604 ft 29 kts 228°
2026-05-07 05:55 34.44143 108.73773 1604 ft 18 kts 228°
2026-05-07 05:55 34.44113 108.73727 1604 ft 5 kts 249°
2026-05-07 05:55 34.44116 108.73691 1604 ft 4 kts 303°
2026-05-07 05:55 34.44134 108.73667 1604 ft 3 kts 318°
2026-05-07 05:56 34.44153 108.73647 1604 ft 4 kts 319°
2026-05-07 05:56 34.44182 108.73618 1604 ft 7 kts 320°
2026-05-07 05:56 34.44219 108.73591 1604 ft 6 kts 351°
2026-05-07 05:56 34.44245 108.73601 1604 ft 3 kts 49°
2026-05-07 05:57 34.44249 108.73607 1604 ft 0 kts 49°
2026-05-07 05:57 34.44312 108.73694 1604 ft 45 kts 49°
2026-05-07 05:57 34.44687 108.74208 1604 ft 115 kts 49°
2026-05-07 05:58 34.45349 108.75120 1605 ft 171 kts 48°
2026-05-07 05:58 34.46215 108.76322 1778 ft 201 kts 50°
2026-05-07 05:58 34.47090 108.77711 2145 ft 215 kts 53°
2026-05-07 05:58 34.47957 108.79119 2851 ft 204 kts 44°
2026-05-07 05:59 34.49170 108.79962 3182 ft 205 kts 16°
2026-05-07 05:59 34.50538 108.80495 3471 ft 211 kts 16°
2026-05-07 05:59 34.52043 108.80681 3656 ft 220 kts
2026-05-07 05:59 34.53601 108.80674 3851 ft 234 kts
2026-05-07 06:00 34.55225 108.80814 4413 ft 230 kts
2026-05-07 06:00 34.56766 108.81074 5030 ft 226 kts 10°
2026-05-07 06:00 34.58323 108.81399 5480 ft 228 kts 11°
2026-05-07 06:00 34.59862 108.81757 6048 ft 226 kts 12°
2026-05-07 06:01 34.61395 108.82132 6540 ft 227 kts 13°
2026-05-07 06:01 34.62951 108.82527 7048 ft 227 kts 13°
2026-05-07 06:01 34.64491 108.82911 7554 ft 227 kts
2026-05-07 06:01 34.66076 108.82783 7948 ft 232 kts 354°
2026-05-07 06:02 34.67666 108.82951 8240 ft 238 kts 24°
2026-05-07 06:02 34.69007 108.84201 8378 ft 254 kts 55°
2026-05-07 06:02 34.69665 108.86214 8726 ft 263 kts 73°
2026-05-07 06:02 34.70444 108.88220 8967 ft 270 kts 46°
2026-05-07 06:03 34.71978 108.89560 9258 ft 277 kts 19°
2026-05-07 06:03 34.73881 108.89879 9717 ft 279 kts
2026-05-07 06:03 34.75784 108.90300 10073 ft 285 kts 25°
2026-05-07 06:03 34.77378 108.91739 10402 ft 293 kts 50°
2026-05-07 06:04 34.78310 108.93951 10779 ft 303 kts 75°
2026-05-07 06:04 34.78372 108.96528 11175 ft 314 kts 99°
2026-05-07 06:04 34.77525 108.98987 11560 ft 325 kts 124°
2026-05-07 06:04 34.75872 109.00903 11951 ft 333 kts 148°
2026-05-07 06:05 34.73739 109.02032 12379 ft 336 kts 156°
2026-05-07 06:05 34.71616 109.03213 12825 ft 337 kts 152°
2026-05-07 06:05 34.69497 109.04436 13238 ft 341 kts 155°
2026-05-07 06:05 34.67307 109.05563 13618 ft 345 kts 157°
2026-05-07 06:06 34.65078 109.06644 14041 ft 346 kts 158°
2026-05-07 06:06 34.62838 109.07714 14470 ft 348 kts 158°
2026-05-07 06:06 34.60565 109.08794 14896 ft 350 kts 158°
2026-05-07 06:06 34.58299 109.09868 15292 ft 352 kts 159°
2026-05-07 06:07 34.56007 109.10951 15644 ft 356 kts 158°
2026-05-07 06:07 34.53700 109.12040 16036 ft 358 kts 159°
2026-05-07 06:07 34.51375 109.13137 16422 ft 360 kts 159°
2026-05-07 06:07 34.49052 109.14232 16878 ft 359 kts 159°
2026-05-07 06:08 34.46721 109.15330 17256 ft 362 kts 159°
2026-05-07 06:08 34.44355 109.16444 17604 ft 365 kts 159°
2026-05-07 06:08 34.41990 109.17556 17986 ft 366 kts 159°
2026-05-07 06:08 34.39627 109.18668 18367 ft 367 kts 160°
2026-05-07 06:09 34.37252 109.19783 18774 ft 367 kts 160°
2026-05-07 06:09 34.34877 109.20898 19134 ft 368 kts 161°
2026-05-07 06:09 34.32486 109.22020 19454 ft 370 kts 161°
2026-05-07 06:09 34.30098 109.23140 19845 ft 370 kts 161°
2026-05-07 06:10 34.27688 109.24271 20226 ft 370 kts 162°
2026-05-07 06:10 34.25331 109.25484 20517 ft 374 kts 155°
2026-05-07 06:10 34.23062 109.26977 20824 ft 376 kts 153°
2026-05-07 06:10 34.20752 109.28539 20956 ft 383 kts 154°
2026-05-07 06:11 34.18376 109.30095 21004 ft 392 kts 155°
2026-05-07 06:11 34.15962 109.31664 21171 ft 398 kts 155°
2026-05-07 06:11 34.13590 109.33203 21400 ft 400 kts 155°
2026-05-07 06:11 34.11072 109.34837 21657 ft 402 kts 155°
2026-05-07 06:12 34.08610 109.36432 21943 ft 403 kts 156°
2026-05-07 06:12 34.06147 109.38026 22157 ft 406 kts 156°
2026-05-07 06:12 34.03631 109.39649 22104 ft 416 kts 156°
2026-05-07 06:12 34.01058 109.41308 22133 ft 424 kts 156°
2026-05-07 06:13 33.98450 109.42993 22248 ft 428 kts 156°
2026-05-07 06:13 33.95823 109.44690 22411 ft 431 kts 156°
2026-05-07 06:13 33.93163 109.46407 22601 ft 433 kts 156°
2026-05-07 06:13 33.90508 109.48118 22807 ft 435 kts 156°
2026-05-07 06:14 33.87831 109.49837 22902 ft 439 kts 156°
2026-05-07 06:14 33.85113 109.51572 22882 ft 447 kts 156°
2026-05-07 06:14 33.82298 109.53128 22858 ft 447 kts 168°
2026-05-07 06:14 33.79254 109.53679 22784 ft 442 kts 186°
2026-05-07 06:15 33.76235 109.53203 22793 ft 439 kts 198°
2026-05-07 06:15 33.73431 109.51788 22846 ft 433 kts 216°
2026-05-07 06:15 33.71217 109.49422 23052 ft 426 kts 233°
2026-05-07 06:15 33.69762 109.46370 23205 ft 424 kts 251°
2026-05-07 06:16 33.69189 109.42949 23529 ft 420 kts 265°
2026-05-07 06:16 33.68883 109.39518 24067 ft 412 kts 259°
2026-05-07 06:16 33.68189 109.36200 24173 ft 415 kts 252°
2026-05-07 06:16 33.67206 109.32948 24349 ft 416 kts 250°
2026-05-07 06:17 33.66147 109.29701 24558 ft 417 kts 249°
2026-05-07 06:17 33.65076 109.26472 24712 ft 419 kts 249°
2026-05-07 06:17 33.63991 109.23244 24882 ft 420 kts 249°
2026-05-07 06:17 33.62889 109.20004 25094 ft 421 kts 249°
2026-05-07 06:18 33.61786 109.16771 25286 ft 421 kts 249°
2026-05-07 06:18 33.60685 109.13526 25429 ft 423 kts 249°
2026-05-07 06:18 33.59571 109.10263 25527 ft 426 kts 249°
2026-05-07 06:18 33.58447 109.06970 25791 ft 425 kts 249°
2026-05-07 06:19 33.57322 109.03705 25955 ft 426 kts 249°
2026-05-07 06:19 33.56192 109.00421 26053 ft 429 kts 249°
2026-05-07 06:19 33.55056 108.97122 26237 ft 430 kts 249°
2026-05-07 06:19 33.53926 108.93818 26420 ft 431 kts 249°
2026-05-07 06:20 33.52787 108.90502 26580 ft 432 kts 249°
2026-05-07 06:20 33.51647 108.87184 26770 ft 433 kts 249°
2026-05-07 06:20 33.50487 108.83831 26897 ft 435 kts 249°
2026-05-07 06:20 33.49313 108.80498 27042 ft 436 kts 249°
2026-05-07 06:21 33.48141 108.77169 27235 ft 437 kts 249°
2026-05-07 06:21 33.46961 108.73822 27296 ft 438 kts 249°
2026-05-07 06:21 33.45787 108.70499 27284 ft 433 kts 249°
2026-05-07 06:21 33.44623 108.67204 27270 ft 431 kts 249°
2026-05-07 06:22 33.43468 108.63924 27268 ft 429 kts 249°
2026-05-07 06:22 33.41144 108.57347 27295 ft 428 kts 249°
2026-05-07 06:22 33.39986 108.54066 27324 ft 429 kts 249°
2026-05-07 06:23 33.38815 108.50805 27423 ft 430 kts 249°
2026-05-07 06:23 33.37644 108.47521 27536 ft 432 kts 249°
2026-05-07 06:23 33.36485 108.44230 27761 ft 430 kts 249°
2026-05-07 06:23 33.35333 108.40961 28001 ft 429 kts 249°
2026-05-07 06:24 33.34154 108.37677 28228 ft 428 kts 249°
2026-05-07 06:24 33.32989 108.34425 28472 ft 426 kts 248°
2026-05-07 06:24 33.30131 108.28239 28801 ft 430 kts 235°
2026-05-07 06:25 33.28322 108.25428 29116 ft 427 kts 236°
2026-05-07 06:25 33.26560 108.22603 29392 ft 424 kts 236°
2026-05-07 06:25 33.24816 108.19772 29497 ft 426 kts 237°
2026-05-07 06:25 33.23057 108.16906 29709 ft 425 kts 237°
2026-05-07 06:26 33.21307 108.14083 29932 ft 425 kts 236°
2026-05-07 06:26 33.19554 108.11259 30109 ft 425 kts 237°
2026-05-07 06:26 33.17811 108.08440 30290 ft 424 kts 237°
2026-05-07 06:26 33.16068 108.05623 30550 ft 422 kts 237°
2026-05-07 06:27 33.14335 108.02822 30740 ft 422 kts 237°
2026-05-07 06:27 33.12598 108.00014 30850 ft 423 kts 237°
2026-05-07 06:27 33.10845 107.97195 31085 ft 421 kts 237°
2026-05-07 06:27 33.09111 107.94397 31285 ft 420 kts 237°
2026-05-07 06:28 33.07381 107.91618 31487 ft 419 kts 237°
2026-05-07 06:28 33.05653 107.88851 31717 ft 417 kts 237°
2026-05-07 06:28 33.03933 107.86100 31857 ft 417 kts 237°
2026-05-07 06:28 33.02209 107.83336 32036 ft 416 kts 238°
2026-05-07 06:29 33.00497 107.80580 32211 ft 415 kts 238°
2026-05-07 06:29 32.98775 107.77815 32316 ft 416 kts 237°
2026-05-07 06:29 32.95301 107.72247 32170 ft 425 kts 238°
2026-05-07 06:30 32.91759 107.66594 32176 ft 430 kts 237°
2026-05-07 06:30 32.88284 107.61064 32225 ft 433 kts 237°
2026-05-07 06:31 32.84585 107.55224 32241 ft 436 kts 237°
2026-05-07 06:31 32.82773 107.52350 32406 ft 434 kts 238°
2026-05-07 06:31 32.80976 107.49495 32551 ft 432 kts 238°
2026-05-07 06:32 32.77466 107.43751 32767 ft 430 kts 239°
2026-05-07 06:32 32.73976 107.38010 32934 ft 430 kts 238°
2026-05-07 06:33 32.72215 107.35125 33044 ft 429 kts 238°
2026-05-07 06:33 32.70474 107.32267 33073 ft 430 kts 238°
2026-05-07 06:33 32.66989 107.26543 33306 ft 428 kts 238°
2026-05-07 06:34 32.65247 107.23697 33453 ft 427 kts 238°
2026-05-07 06:34 32.63512 107.20864 33573 ft 426 kts 238°
2026-05-07 06:34 32.61778 107.18034 33706 ft 425 kts 238°
2026-05-07 06:34 32.60036 107.15197 33820 ft 424 kts 238°
2026-05-07 06:35 32.56571 107.09560 33892 ft 426 kts 238°
2026-05-07 06:35 32.53080 107.03887 33893 ft 429 kts 238°
2026-05-07 06:36 32.49564 106.98187 33896 ft 431 kts 238°
2026-05-07 06:36 32.46018 106.92441 33884 ft 433 kts 238°
2026-05-07 06:37 32.42461 106.86689 33884 ft 435 kts 238°
2026-05-07 06:37 32.38885 106.80916 33875 ft 437 kts 238°
2026-05-07 06:38 32.35285 106.75112 33861 ft 439 kts 238°
2026-05-07 06:38 32.31683 106.69312 33856 ft 440 kts 238°
2026-05-07 06:39 32.28058 106.63491 33845 ft 441 kts 237°
2026-05-07 06:39 32.24402 106.57685 33823 ft 443 kts 237°
2026-05-07 06:40 32.20726 106.51843 33820 ft 444 kts 237°
2026-05-07 06:40 32.17050 106.46007 33816 ft 444 kts 237°
2026-05-07 06:41 32.13368 106.40172 33816 ft 445 kts 237°
2026-05-07 06:41 32.09676 106.34327 33811 ft 446 kts 237°
2026-05-07 06:42 32.05983 106.28464 33802 ft 448 kts 237°
2026-05-07 06:42 32.02271 106.22599 33816 ft 449 kts 237°
2026-05-07 06:43 31.98551 106.16731 33823 ft 450 kts 236°
2026-05-07 06:43 31.94798 106.10826 33822 ft 451 kts 236°
2026-05-07 06:44 31.91043 106.04924 33825 ft 452 kts 236°
2026-05-07 06:44 31.87275 105.99043 33786 ft 453 kts 236°
2026-05-07 06:45 31.83485 105.93142 33786 ft 454 kts 237°
2026-05-07 06:45 31.79694 105.87215 33785 ft 455 kts 237°
2026-05-07 06:46 31.75888 105.81271 33783 ft 457 kts 237°
2026-05-07 06:46 31.72076 105.75323 33777 ft 458 kts 237°
2026-05-07 06:47 31.68252 105.69371 33776 ft 459 kts 237°
2026-05-07 06:47 31.64406 105.63391 33780 ft 459 kts 237°
2026-05-07 06:48 31.60565 105.57431 33780 ft 459 kts 237°
2026-05-07 06:48 31.56722 105.51474 33782 ft 460 kts 237°
2026-05-07 06:49 31.52860 105.45497 33775 ft 460 kts 237°
2026-05-07 06:49 31.49007 105.39545 33767 ft 461 kts 237°
2026-05-07 06:50 31.45149 105.33591 33745 ft 462 kts 236°
2026-05-07 06:50 31.41305 105.27599 33732 ft 462 kts 238°
2026-05-07 06:51 31.37659 105.21418 33737 ft 462 kts 239°
2026-05-07 06:51 31.34000 105.15268 33733 ft 462 kts 238°
2026-05-07 06:52 31.30331 105.09130 33734 ft 462 kts 238°
2026-05-07 06:52 31.26648 105.02979 33730 ft 462 kts 238°
2026-05-07 06:53 31.22968 104.96844 33739 ft 462 kts 238°
2026-05-07 06:53 31.19300 104.90739 33856 ft 460 kts 238°
2026-05-07 06:54 31.15650 104.84673 33958 ft 458 kts 238°
2026-05-07 06:54 31.11992 104.78604 34067 ft 457 kts 238°
2026-05-07 06:55 31.08345 104.72559 34118 ft 460 kts 238°
2026-05-07 06:55 31.04664 104.66469 34110 ft 462 kts 238°
2026-05-07 06:56 31.00855 104.60452 34104 ft 461 kts 237°
2026-05-07 06:56 30.97042 104.54476 34096 ft 461 kts 237°
2026-05-07 06:57 30.93234 104.48497 34098 ft 461 kts 237°
2026-05-07 06:57 30.89438 104.42542 34079 ft 461 kts 237°
2026-05-07 06:58 30.84701 104.37496 34056 ft 477 kts 212°
2026-05-07 06:58 30.78531 104.34484 34053 ft 482 kts 209°
2026-05-07 06:59 30.72417 104.31283 34048 ft 483 kts 210°
2026-05-07 06:59 30.66289 104.28084 34058 ft 482 kts 210°
2026-05-07 07:00 30.60188 104.24903 34064 ft 482 kts 210°
2026-05-07 07:00 30.54128 104.21643 34068 ft 481 kts 211°
2026-05-07 07:01 30.47698 104.19328 34093 ft 497 kts 193°
2026-05-07 07:01 30.40789 104.18439 34043 ft 497 kts 194°
2026-05-07 07:02 30.33944 104.17407 34054 ft 497 kts 194°
2026-05-07 07:02 30.27096 104.16383 34052 ft 498 kts 194°
2026-05-07 07:03 30.20214 104.15356 34050 ft 497 kts 194°
2026-05-07 07:03 30.13358 104.14332 34047 ft 498 kts 194°
2026-05-07 07:04 30.06509 104.13311 34045 ft 498 kts 194°
2026-05-07 07:04 29.99660 104.12292 34045 ft 497 kts 194°
2026-05-07 07:05 29.92792 104.11272 34038 ft 497 kts 194°
2026-05-07 07:05 29.85941 104.10257 33979 ft 498 kts 194°
2026-05-07 07:06 29.79079 104.09249 34001 ft 499 kts 194°
2026-05-07 07:06 29.72183 104.08230 34009 ft 500 kts 194°
2026-05-07 07:07 29.65269 104.07206 34009 ft 501 kts 194°
2026-05-07 07:07 29.58381 104.06190 34010 ft 500 kts 194°
2026-05-07 07:08 29.51491 104.05174 34005 ft 500 kts 194°
2026-05-07 07:08 29.44577 104.04158 34000 ft 501 kts 194°
2026-05-07 07:09 29.37669 104.03263 33991 ft 505 kts 189°
2026-05-07 07:09 29.30590 104.03428 34002 ft 510 kts 186°
2026-05-07 07:10 29.23498 104.03553 33989 ft 508 kts 186°
2026-05-07 07:10 29.16419 104.03650 33984 ft 511 kts 186°
2026-05-07 07:11 29.09321 104.03751 33977 ft 511 kts 187°
2026-05-07 07:11 29.02227 104.03844 33966 ft 511 kts 187°
2026-05-07 07:12 28.95091 104.03946 33979 ft 511 kts 187°
2026-05-07 07:12 28.88004 104.04044 33962 ft 513 kts 187°
2026-05-07 07:13 28.80876 104.04150 33990 ft 512 kts 186°
2026-05-07 07:13 28.73731 104.04250 34036 ft 514 kts 186°
2026-05-07 07:14 28.66606 104.04349 34043 ft 512 kts 186°
2026-05-07 07:14 28.59487 104.04357 34033 ft 507 kts 193°
2026-05-07 07:15 28.56129 104.03485 34064 ft 487 kts 209°
2026-05-07 07:15 28.53245 104.01730 34131 ft 476 kts 220°
2026-05-07 07:15 28.47743 103.97532 34069 ft 476 kts 218°
2026-05-07 07:16 28.42125 103.93547 34113 ft 478 kts 218°
2026-05-07 07:16 28.36496 103.89575 34135 ft 478 kts 218°
2026-05-07 07:17 28.30827 103.85584 34105 ft 478 kts 218°
2026-05-07 07:17 28.25192 103.81626 34139 ft 478 kts 218°
2026-05-07 07:18 28.19560 103.77672 34137 ft 476 kts 218°
2026-05-07 07:18 28.13942 103.73734 34160 ft 477 kts 218°
2026-05-07 07:19 28.08290 103.69775 34146 ft 477 kts 218°
2026-05-07 07:19 28.02662 103.65839 34165 ft 478 kts 218°
2026-05-07 07:20 27.97007 103.61888 34168 ft 478 kts 218°
2026-05-07 07:20 27.91335 103.57932 34167 ft 479 kts 218°
2026-05-07 07:21 27.85677 103.54011 34138 ft 479 kts 218°
2026-05-07 07:21 27.79990 103.50069 34170 ft 481 kts 218°
2026-05-07 07:22 27.74309 103.46123 34189 ft 480 kts 218°
2026-05-07 07:22 27.68613 103.42170 34201 ft 480 kts 218°
2026-05-07 07:23 27.62927 103.38230 34190 ft 481 kts 218°
2026-05-07 07:23 27.57231 103.34284 34179 ft 482 kts 217°
2026-05-07 07:24 27.51510 103.30296 34171 ft 484 kts 217°
2026-05-07 07:24 27.45804 103.26350 34168 ft 483 kts 217°
2026-05-07 07:25 27.39578 103.23272 34184 ft 493 kts 206°
2026-05-07 07:25 27.36374 103.21912 34185 ft 494 kts 207°
2026-05-07 07:26 27.29969 103.19085 34176 ft 493 kts 207°
2026-05-07 07:26 27.23602 103.16274 34173 ft 493 kts 207°
2026-05-07 07:27 27.17330 103.13508 33547 ft 482 kts 208°
2026-05-07 07:27 27.14204 103.12121 32519 ft 487 kts 208°
2026-05-07 07:27 27.11057 103.10728 31727 ft 488 kts 207°
2026-05-07 07:27 27.07890 103.09332 31012 ft 486 kts 207°
2026-05-07 07:28 27.04760 103.07954 30263 ft 485 kts 207°
2026-05-07 07:28 27.01632 103.06575 29651 ft 481 kts 207°
2026-05-07 07:28 26.98552 103.05223 29196 ft 473 kts 207°
2026-05-07 07:28 26.95512 103.03885 28598 ft 468 kts 207°
2026-05-07 07:29 26.92497 103.02558 28072 ft 463 kts 207°
2026-05-07 07:29 26.89526 103.01250 27451 ft 460 kts 206°
2026-05-07 07:29 26.86528 102.99939 26726 ft 460 kts 206°
2026-05-07 07:29 26.83577 102.98652 26217 ft 454 kts 206°
2026-05-07 07:30 26.80655 102.97376 25690 ft 449 kts 206°
2026-05-07 07:30 26.77770 102.96111 25099 ft 445 kts 207°
2026-05-07 07:30 26.74907 102.94855 24476 ft 441 kts 206°
2026-05-07 07:30 26.72084 102.93585 23878 ft 435 kts 210°
2026-05-07 07:31 26.69599 102.91786 23174 ft 424 kts 226°
2026-05-07 07:31 26.67795 102.89245 22594 ft 412 kts 244°
2026-05-07 07:31 26.66857 102.86285 22039 ft 406 kts 261°
2026-05-07 07:31 26.66747 102.83170 21450 ft 403 kts 271°
2026-05-07 07:32 26.66824 102.80070 20749 ft 402 kts 268°
2026-05-07 07:32 26.66705 102.76971 20081 ft 400 kts 265°
2026-05-07 07:32 26.66495 102.73909 19456 ft 397 kts 265°
2026-05-07 07:32 26.66272 102.70868 18709 ft 396 kts 265°
2026-05-07 07:33 26.66041 102.67811 17928 ft 394 kts 264°
2026-05-07 07:33 26.65808 102.64788 17202 ft 392 kts 264°
2026-05-07 07:33 26.65577 102.61822 16172 ft 389 kts 264°
2026-05-07 07:33 26.65341 102.58829 15369 ft 387 kts 264°
2026-05-07 07:34 26.65108 102.55870 14663 ft 384 kts 264°
2026-05-07 07:34 26.64873 102.52922 13829 ft 384 kts 263°
2026-05-07 07:34 26.64638 102.49983 13062 ft 382 kts 264°
2026-05-07 07:34 26.64403 102.47031 12227 ft 381 kts 264°
2026-05-07 07:35 26.64169 102.44104 11540 ft 377 kts 264°
2026-05-07 07:35 26.63940 102.41225 11102 ft 367 kts 264°
2026-05-07 07:35 26.63718 102.38438 10802 ft 353 kts 264°
2026-05-07 07:35 26.63505 102.35773 10759 ft 343 kts 264°
2026-05-07 07:36 26.63290 102.33118 10759 ft 346 kts 264°
2026-05-07 07:36 26.63076 102.30454 10916 ft 345 kts 264°
2026-05-07 07:36 26.62858 102.27766 11011 ft 347 kts 264°
2026-05-07 07:36 26.62641 102.25089 11003 ft 346 kts 264°
2026-05-07 07:37 26.62425 102.22426 10917 ft 340 kts 264°
2026-05-07 07:37 26.62213 102.19853 10670 ft 330 kts 264°
2026-05-07 07:37 26.62007 102.17334 10309 ft 324 kts 264°
2026-05-07 07:37 26.61803 102.14849 9847 ft 321 kts 264°
2026-05-07 07:38 26.61606 102.12393 9303 ft 317 kts 267°
2026-05-07 07:38 26.61741 102.09982 9187 ft 301 kts 279°
2026-05-07 07:38 26.62073 102.07737 9148 ft 286 kts 281°
2026-05-07 07:38 26.62400 102.05601 9093 ft 274 kts 280°
2026-05-07 07:39 26.62707 102.03524 9198 ft 261 kts 280°
2026-05-07 07:39 26.62945 102.01569 9163 ft 253 kts 274°
2026-05-07 07:39 26.62909 101.99594 9129 ft 257 kts 267°
2026-05-07 07:39 26.62798 101.97663 8951 ft 242 kts 266°
2026-05-07 07:40 26.62671 101.95820 8610 ft 233 kts 266°
2026-05-07 07:40 26.62548 101.94039 8154 ft 233 kts 264°
2026-05-07 07:40 26.62117 101.92378 7702 ft 213 kts 244°
2026-05-07 07:40 26.61428 101.91011 7488 ft 197 kts 242°
2026-05-07 07:41 26.60816 101.89616 7607 ft 203 kts 248°
2026-05-07 07:41 26.60260 101.88141 7864 ft 209 kts 247°
2026-05-07 07:41 26.59693 101.86644 7995 ft 212 kts 249°
2026-05-07 07:41 26.59107 101.85158 8015 ft 199 kts 244°
2026-05-07 07:42 26.58543 101.83867 7926 ft 177 kts 243°
2026-05-07 07:42 26.57938 101.82660 7593 ft 183 kts 237°
2026-05-07 07:42 26.57166 101.81571 7196 ft 178 kts 225°
2026-05-07 07:42 26.56162 101.80794 6749 ft 177 kts 202°
2026-05-07 07:43 26.55427 101.80465 6534 ft 171 kts 201°
2026-05-07 07:43 26.54334 101.79999 6441 ft 165 kts 202°
2026-05-07 07:43 26.53385 101.79585 6425 ft 118 kts 201°
2026-05-07 07:43 26.52809 101.79326 6420 ft 59 kts 206°
2026-05-07 07:44 26.52650 101.79256 6419 ft 0 kts 198°
2026-05-07 07:44 26.52647 101.79254 6420 ft 2 kts 209°
2026-05-07 07:44 26.52630 101.79254 6420 ft 2 kts 130°
2026-05-07 07:45 26.52630 101.79267 6420 ft 2 kts 47°
2026-05-07 07:45 26.52675 101.79285 6420 ft 14 kts 18°
2026-05-07 07:45 26.52846 101.79352 6421 ft 37 kts 20°
2026-05-07 07:45 26.53162 101.79486 6423 ft 59 kts 21°
2026-05-07 07:46 26.53570 101.79662 6426 ft 52 kts 22°
2026-05-07 07:46 26.53882 101.79798 6428 ft 39 kts 22°
2026-05-07 07:46 26.53950 101.79774 6429 ft 5 kts 239°
2026-05-07 07:46 26.53945 101.79765 6429 ft 0 kts 244°